Location: Le Moustier
(44.1000°N, 6.5167°E)
Time: 07:45:27
(UTC+00:00)

Landsat 7 - Visible Passes

Search period start: 11 March 2026 00:00
Search period end: 21 March 2026 00:00
Orbit: 680 x 682 km, 97.9° (Epoch: 10 March)

Date Brightness Start Highest point End Pass type
(mag) Time Alt. Az. Time Alt. Az. Time Alt. Az.
11 Mar 7.3 18:24:51 10° WSW 18:27:00 13° W 18:29:09 10° WNW visible
12 Mar 7.0 04:40:38 10° NE 04:43:22 15° E 04:46:05 10° SE visible
13 Mar 5.8 05:15:29 10° NNE 05:19:44 34° E 05:23:57 10° SSE visible
15 Mar 6.8 04:50:56 10° NE 04:54:20 20° E 04:57:43 10° SE visible
16 Mar 7.0 18:09:21 10° SW 18:12:29 18° W 18:15:39 10° NW visible
17 Mar 7.4 04:27:33 10° ENE 04:28:50 11° E 04:30:07 10° ESE visible
18 Mar 6.4 05:01:25 10° NE 05:05:17 25° E 05:09:07 10° SSE visible
19 Mar 7.2 18:21:04 10° WSW 18:23:27 14° W 18:25:50 10° WNW visible
20 Mar 7.0 04:37:15 10° NE 04:39:49 14° E 04:42:21 10° ESE visible
